logo tempoitalia

Diretta Meteo Sweetwater Avenger Fld, Stati Uniti (USA)lunedì 31 agosto ore 01:35

Mappa
Sereno 28 °C Sereno 24 Ore: T.min 26 T.max 39
Ponente Sud Km/h 22.2 Punto di rugiada: 14 °C Umidità: 42% Visibilità: 10 Km
Il sole sorge alle: 07:16 Il sole tramonta alle: 20:07
31 Agosto 2026 01:35 tempo osservato: Sereno Sereno 28 42 1017 vento: Nord S 22.2
31 Agosto 2026 01:15 tempo osservato: Sereno Sereno 28 42 1017 vento: Nord S 20.3
31 Agosto 2026 00:55 tempo osservato: Sereno Sereno 29 39 1017 vento: Nord S 25.9
31 Agosto 2026 00:35 tempo osservato: Sereno Sereno 29 37 1017 vento: Nord S/SE 25.9
31 Agosto 2026 00:15 tempo osservato: Sereno Sereno 30 35 1017 vento: Nord S/SE 20.3
30 Agosto 2026 23:55 tempo osservato: Sereno Sereno 30 35 1017 vento: Nord S/SE 22.2
30 Agosto 2026 23:35 tempo osservato: Sereno Sereno 30 33 1017 vento: Nord S/SE 22.2
30 Agosto 2026 23:15 tempo osservato: Sereno Sereno 30 33 1017 vento: Nord SE 14.8
30 Agosto 2026 22:55 tempo osservato: Sereno Sereno 30 33 1017 vento: Nord S/SE 16.7
30 Agosto 2026 22:35 tempo osservato: Sereno Sereno 30 33 1016 vento: Nord S/SE 13
30 Agosto 2026 22:15 tempo osservato: Sereno Sereno 30 33 1016 vento: Nord S/SE 13
30 Agosto 2026 22:00 tempo osservato: Sereno Sereno 31 31 1016 vento: Nord S/SE 11.1
30 Agosto 2026 21:35 tempo osservato: Sereno Sereno 31 31 1016 vento: Nord S/SE 11.1
30 Agosto 2026 21:15 tempo osservato: Sereno Sereno 32 29 1015 vento: Nord SE 11.1
30 Agosto 2026 20:55 tempo osservato: Sereno Sereno 32 27 1015 vento: Nord SE 11.1
30 Agosto 2026 20:35 tempo osservato: Sereno Sereno 33 26 1015 vento: Nord SE 13
30 Agosto 2026 20:15 tempo osservato: Sereno Sereno 34 24 1015 vento: Nord SE 13
30 Agosto 2026 19:55 tempo osservato: Sereno Sereno 35 23 1014 vento: Nord SE 16.7
30 Agosto 2026 19:35 tempo osservato: Sereno Sereno 36 20 1014 vento: Nord SE 18.5
30 Agosto 2026 19:15 tempo osservato: Sereno Sereno 37 20 1014 vento: Nord S/SE 18.5
30 Agosto 2026 18:55 tempo osservato: Sereno Sereno 37 20 1014 vento: Nord SE 16.7
30 Agosto 2026 18:35 tempo osservato: Sereno Sereno 38 19 1014 vento: Nord S 16.7
30 Agosto 2026 18:15 tempo osservato: Sereno Sereno 38 19 1015 vento: Nord S 16.7
30 Agosto 2026 17:55 tempo osservato: Sereno Sereno 38 19 1015 vento: Nord S/SO 13
30 Agosto 2026 17:35 tempo osservato: Sereno Sereno 38 19 1014 vento: Nord S/SE 22.2
30 Agosto 2026 17:15 tempo osservato: Sereno Sereno 39 18 1015 vento: Nord S 7.4
30 Agosto 2026 16:55 tempo osservato: Sereno Sereno 39 20 1015 vento: Nord S 16.7
30 Agosto 2026 16:35 tempo osservato: Sereno Sereno 39 20 1015 vento: Nord S/SE 11.1
30 Agosto 2026 16:15 tempo osservato: Sereno Sereno 38 21 1015 vento: Nord N 0
30 Agosto 2026 15:55 tempo osservato: Sereno Sereno 38 21 1016 vento: Nord S/SE 9.3
30 Agosto 2026 15:35 tempo osservato: Sereno Sereno 37 22 1016 vento: Nord S 13
30 Agosto 2026 15:15 tempo osservato: Sereno Sereno 38 22 1016 vento: Nord S/SE 16.7
30 Agosto 2026 14:55 tempo osservato: Sereno Sereno 39 21 1016 vento: Nord SE 22.2
30 Agosto 2026 14:35 tempo osservato: Sereno Sereno 37 23 1017 vento: Nord S 22.2
30 Agosto 2026 14:20 tempo osservato: Sereno Sereno 38 21 1017 vento: Nord S 16.7
30 Agosto 2026 13:55 tempo osservato: Sereno Sereno 38 22 1017 vento: Nord S 18.5
30 Agosto 2026 13:35 tempo osservato: Sereno Sereno 37 25 1017 vento: Nord S 13
30 Agosto 2026 13:15 tempo osservato: Sereno Sereno 36 26 1018 vento: Nord S/SE 22.2
30 Agosto 2026 12:55 tempo osservato: Sereno Sereno 36 26 1018 vento: Nord S/SE 14.8
30 Agosto 2026 12:35 tempo osservato: Sereno Sereno 36 28 1018 vento: Nord S 16.7
30 Agosto 2026 12:15 tempo osservato: Sereno Sereno 35 32 1019 vento: Nord S 16.7
30 Agosto 2026 11:55 tempo osservato: Sereno Sereno 35 32 1019 vento: Nord SO 20.3
30 Agosto 2026 11:35 tempo osservato: Sereno Sereno 33 38 1019 vento: Nord S/SO 20.3
30 Agosto 2026 11:15 tempo osservato: Sereno Sereno 33 38 1019 vento: Nord S 20.3
30 Agosto 2026 10:55 tempo osservato: Sereno Sereno 32 43 1019 vento: Nord S/SO 22.2
30 Agosto 2026 10:35 tempo osservato: Sereno Sereno 31 45 1019 vento: Nord S/SO 27.8
30 Agosto 2026 10:15 tempo osservato: Sereno Sereno 31 45 1019 vento: Nord S/SO 24
30 Agosto 2026 09:55 tempo osservato: Sereno Sereno 30 51 1019 vento: Nord S/SO 27.8
30 Agosto 2026 09:35 tempo osservato: Sereno Sereno 29 54 1019 vento: Nord S/SO 33.3
30 Agosto 2026 09:15 tempo osservato: Sereno Sereno 28 58 1019 vento: Nord S/SO 29.6
30 Agosto 2026 08:55 tempo osservato: Sereno Sereno 28 58 1019 vento: Nord S/SO 27.8
30 Agosto 2026 08:35 tempo osservato: Sereno Sereno 27 61 1019 vento: Nord S/SO 25.9
30 Agosto 2026 08:15 tempo osservato: Sereno Sereno 27 57 1019 vento: Nord S 24
30 Agosto 2026 07:55 tempo osservato: Sereno Sereno 26 61 1019 vento: Nord S 18.5
30 Agosto 2026 07:35 tempo osservato: Sereno Sereno 26 61 1018 vento: Nord S/SO 18.5
30 Agosto 2026 07:15 tempo osservato: Sereno Sereno 26 57 1018 vento: Nord S/SO 18.5
30 Agosto 2026 06:55 tempo osservato: Sereno Sereno 26 57 1018 vento: Nord S/SO 18.5
30 Agosto 2026 06:40 tempo osservato: Sereno Sereno 26 57 1018 vento: Nord S 16.7
30 Agosto 2026 06:15 tempo osservato: Sereno Sereno 26 57 1017 vento: Nord S 16.7
30 Agosto 2026 05:55 tempo osservato: Sereno Sereno 26 54 1017 vento: Nord S 16.7
30 Agosto 2026 05:35 tempo osservato: Sereno Sereno 27 50 1017 vento: Nord S 18.5
30 Agosto 2026 05:15 tempo osservato: Sereno Sereno 27 50 1017 vento: Nord S 18.5
30 Agosto 2026 04:55 tempo osservato: Sereno Sereno 27 50 1017 vento: Nord S 20.3
30 Agosto 2026 04:35 tempo osservato: Sereno Sereno 27 50 1017 vento: Nord S 18.5
30 Agosto 2026 04:15 tempo osservato: Sereno Sereno 27 50 1017 vento: Nord S 16.7
30 Agosto 2026 03:55 tempo osservato: Sereno Sereno 27 50 1017 vento: Nord S 18.5
30 Agosto 2026 03:35 tempo osservato: Sereno Sereno 27 50 1017 vento: Nord S 18.5
30 Agosto 2026 03:15 tempo osservato: Sereno Sereno 28 48 1017 vento: Nord S 16.7
30 Agosto 2026 02:55 tempo osservato: Sereno Sereno 28 45 1017 vento: Nord S 22.2
30 Agosto 2026 02:35 tempo osservato: Sereno Sereno 28 45 1017 vento: Nord S 20.3
30 Agosto 2026 02:15 tempo osservato: Sereno Sereno 28 45 1018 vento: Nord S 18.5
30 Agosto 2026 01:55 tempo osservato: Sereno Sereno 29 42 1018 vento: Nord S 22.2
30 Agosto 2026 01:35 tempo osservato: Sereno Sereno 29 42 1018 vento: Nord S 24